METEOR 2-11 DEB, 40704

Orbit data source: Space-Track

METEOR 2-11 DEB, 40704 is space debris in LEO originally from a launch on Thu, 05 Jul 1984 UTC launched from the Plesetsk Missile And Space Complex (PKMTR). Debris objects in space refer to the collection of defunct objects orbiting the Earth. Examples of debris include non-operational satellites, rocket bodies, and fragments generated from explosions, collisions, or faulty payload assembly.

Loading next visibility...
Identifier
40704, 1984-072F
Orbit
LEO
Country
Flag of CISCIS
Related business
Manufacturer
Unknown
Mission
Spacecraft
Bus & Motor
Unknown
Mass
Unknown
Launch date (UTC)
1984-07-05 (42 years ago)
Launch vehicle
Unknown
Launch site
Plesetsk Missile And Space Complex (PKMTR)
Object type
Payload
Rocket body
Debris
Shape & HBR
Unknown shape, 0.1 m
Radar Cross Section
Small (<0.1 m²)

Expand to show TLE details & history
Last TLE update: 4 days ago

TLE from 4 days ago
0 METEOR 2-11 DEB
1 40704U 84072F   26206.07839530  .00002067  00000-0  14106-2 0  9996
2 40704  82.5201 334.5587 0028096 208.8658 151.0957 13.99227724572684
Epoch: 2026-07-25T01:52Z
TLE epoch observation values (Epoch: 2026-07-25T01:52:53.353Z)
Latitude
-0.00014°
Longitude
3.54054°
Altitude
917.302 km
Speed
7.384 km/s
True Right ascension
22h 18m 14s
True Declination
0° 00' 00"
Sunlit
Object was in full shadow at epoch
Visualization orbit readout
Latitude
Unknown
Longitude
Unknown
Altitude
Unknown
Speed
Unknown
Apparent Right ascension
Unknown
Apparent Declination
Unknown
Sunlit
N/A
Visualization observer readout
Local Sidereal Time
05:28:27
Azimuth
Unknown
Elevation
Unknown
Doppler factor
Unknown
Orbital elements
Apogee altitude
914.033 km
Perigee altitude
873.172 km
Semi-major axis
7,271.74 km
Eccentricity
0.00281
Inclination
82.5201°
RAAN
334.5587°
Arg. of periapsis
208.8658°
True anomaly
151.25084°
Mean anomaly
151.0957°
Eccentric anomaly
151.17332°
Mean motion
3.50014 °/min
Orbital period
102.85 mins
BSTAR
0.0014106
Loading maneuver chart data...
Computing Atmospheric mass density...
Loading historical data...
Loading historical data...
Loading historical data...
Loading historical data...
Loading historical data...
Loading historical data...
Loading historical data...

Documentation

Showing up to 5 results
|